カタログに戻る

FENGYUN 1C DEB

運用中PO
NORAD 38824·DEBRIS·🇨🇳 China

打ち上げ May 10, 1999 から Taiyuan Satellite Launch Center

Loading…

次のパス (今後24時間)

TLE

最新Source: Space-Track

元期: Sep 14, 2026, 09:16 UTC

1 38824U 99025EVQ 26257.38642094  .00003339  00000-0  16190-2 0  9995
2 38824  99.2983  47.7488 0095265 149.1115 211.5710 14.16749298730372

AllMySatでFENGYUN 1C DEBをリアルタイム追跡

Download on the App Store